Regional Weather Roundup
Issued by NWS Upton, NY

Current Version | Previous Version | Text Only | Print | Product List | Glossary On
Versions: 1 2 3 4 5 6 7 8 9 10 11 12 13 14 15 16 17 18 19 20 21 22 23 24 25 26 27 28 29 30 31 32 33 34 35 36 37 38 39 40 41 42 43 44 45 46 47 48 49 50
000
ASUS41 KOKX 301705
RWROKX

REGIONAL WEATHER ROUNDUP
NATIONAL WEATHER SERVICE NEW YORK NY
1200 PM EST FRI JAN 30 2015

NOTE: "FAIR" INDICATES FEW OR NO CLOUDS BELOW 12,000 FEET WITH NO
SIGNIFICANT WEATHER AND/OR OBSTRUCTIONS TO VISIBILITY.

NYZ071-072-176-178-NJZ106-104-301800-
NEW YORK CITY METRO AREA


CITY           SKY/WX    TMP DP  RH WIND       PRES   REMARKS
CENTRAL PARK   CLOUDY    36  23  59 NW16G23   29.86F WCI  26
LAGUARDIA APRT PTSUNNY   36  26  67 NW21G30   29.84F WCI  25
KENNEDY INTL   PTSUNNY   36  25  64 NW15      29.86S WCI  27
NEWARK/LIBERTY FLURRIES  35  26  69 NW18G25   29.86F WCI  24
BRNX BOT. GARD   N/A    N/A N/A N/A NW17      29.85S
TETERBORO      CLOUDY    36  24  62 NW12G22   29.85F WCI  28
$$

NYZ177-179-078>081-301800-
LONG ISLAND NEW YORK

CITY           SKY/WX    TMP DP  RH WIND       PRES   REMARKS
FARMINGDALE    CLOUDY    34  27  75 NW10G18   29.83F WCI  26
ISLIP          FLURRIES  33  27  78 NW12      29.80S WCI  24
SHIRLEY        LGT RAIN  33  28  81 NW10      29.81F WCI  25
WESTHAMPTON    CLOUDY    33  29  85 NW13      29.80F WCI  24
MONTAUK POINT    N/A     34  31  88 NW10      29.78F WCI  26
$$

NYZ052-065-067-301800-
HUDSON VALLEY

CITY           SKY/WX    TMP DP  RH WIND       PRES   REMARKS
WHITE PLAINS   CLOUDY    32  26  78 NW15G28   29.80F WCI  22
NEWBURGH       PTSUNNY   32  28  86 W12       29.84F WCI  23
MONTGOMERY     CLOUDY    34  23  64 NW15G21   29.82F WCI  24
POUGHKEEPSIE   CLOUDY    34  28  79 NW3       29.83F
ALBANY         LGT SNOW  28  22  78 W14G28    29.85S VSB 3/4 WCI  17
$$

NJZ001-105-106-008-010-013-015-019>022-104-301800-
NEW JERSEY

CITY           SKY/WX    TMP DP  RH WIND       PRES   REMARKS
NEWARK/LIBERTY FLURRIES  35  26  69 NW18G25   29.86F WCI  24
TETERBORO      CLOUDY    36  24  62 NW12G22   29.85F WCI  28
CALDWELL       CLOUDY    36  23  59 NW14G22   29.86F WCI  27
MORRISTOWN     CLOUDY    37  25  60 N8G14     29.87F WCI  31
SOMERVILLE     CLOUDY    37  25  61 NW14G23   29.86F WCI  28
SUSSEX         FLURRIES  33  23  66 VRB7G18   29.87R WCI  27
ANDOVER          N/A     33  24  69 VRB7      29.87S WCI  27
TRENTON        CLOUDY    37  24  59 NW18      29.88F WCI  27
MILLVILLE      CLOUDY    40  23  50 NW15G30   29.92F WCI  32
ATLANTIC CITY  CLOUDY    37  26  64 NW16G26   29.90F WCI  28
WRIGHTSTOWN    CLOUDY    37  26  63 NW15G21   29.87F WCI  28
TOMS RIVER     PTSUNNY   37  25  60 NW21G26   29.88F WCI  27
BELMAR         CLOUDY    36  23  60 NW23G33   29.86F WCI  24
$$

PAZ047>061-062-071-301800-
EASTERN PENNSYLVANIA

CITY           SKY/WX    TMP DP  RH WIND       PRES   REMARKS
PHILADELPHIA   PTSUNNY   39  20  46 NW24G32   29.93F WCI  28
ALLENTOWN      CLOUDY    35  21  56 NW14G28   29.91F WCI  26
SCRANTON       LGT SNOW  31  21  66 NW16G25   29.91S WCI  20
$$

CTZ002-004>006-009-010-012-RIZ004-006-007-MAZ004-011-015-301800-
SOUTHERN NEW ENGLAND
 IN CT

CITY           SKY/WX    TMP DP  RH WIND       PRES   REMARKS
BRADLEY INTL   CLOUDY    34  24  67 NW14      29.77F WCI  25
HARTFORD       CLOUDY    34  26  72 NW8       29.78F WCI  27
DANBURY        LGT SNOW  31  24  75 NW7       29.81F WCI  24
WTRBRY/OXFORD  FLURRIES  30  21  69 N14G23    29.77F WCI  20
BRIDGEPORT     CLOUDY    33  28  81 NW12      29.81F WCI  24
MERIDEN        CLOUDY    34  26  72 NW8       29.78F WCI  27
NEW HAVEN      CLOUDY    34  28  79 NW6       29.79F WCI  29
CHESTER        CLOUDY    32  28  86 NW15      29.76F WCI  22
GROTON         LGT SNOW  32  30  92 NW9       29.76F FOG     WCI  24
WILLIMANTIC    CLOUDY    33  27  78 N9        29.77F WCI  25

 IN RI

CITY           SKY/WX    TMP DP  RH WIND       PRES   REMARKS
PROVIDENCE     LGT SNOW  33  30  88 W5        29.76F FOG     WCI  29
BLOCK ISLAND   CLOUDY    34  28  80 NW7       29.74F WCI  28
WESTERLY       LGT SNOW  34  30  85 N10       29.75F FOG     WCI  26

 IN MA

CITY           SKY/WX    TMP DP  RH WIND       PRES   REMARKS
BOSTON         LGT SNOW  34  30  86 W6        29.76F FOG     WCI  29
WORCESTER      LGT SNOW  29  26  89 W13       29.72F FOG     WCI  19
WESTFIELD      CLOUDY    34  24  67 NW9       29.76F WCI  27
PROVINCETOWN   CLOUDY    36  34  93 W3        29.75F
NANTUCKET      LGT RAIN  39  37  92 W5        29.73F FOG
$$

ANZ330-335-338-340-345-350-353-355-301800-
COASTAL MARINE OBSERVATIONS


STATION/POSITION TIME  SKY/WX   TEMP    WIND        PRES    VSBY  WAVE
                                AIR SEA DIR/SP/G                  HT/PER
                 (UTC)          (F)     (DEG/KT/KT) (MB)    (MI)  (FT/S)
NY HARB ENTRANCE 1700            35 41  300/ 19/ 25 1010.2          3/ 3
4S FIRE IS       1600               37                N/A           4/ 6
20S FIRE ISLAND  1600               42              1010.6          4/ 6
23SW MTP         1700                                 N/A           4/ 6
HUDSON CANYON    NOT AVBL
EXECUTION ROCKS  1600            33 33  300/ 12/ 17   N/A
WESTERN LI SOUND 1600            32     310/ 10/ 12   N/A           0
CENTRAL LI SOUND 1600            31 35  300/ 14/ 16   N/A           2/ 2
EASTERN LI SOUND NOT AVBL
ROBBINS REEF     1600            34     310/ 15/ 18 1010.2
$$


>>>>>>>>>>>>>>>>>>>>>>>>>>>> KEY <<<<<<<<<<<<<<<<<<<<<<<<<<<
>                                                          <
>     SKY/WX - SKY CONDITION/PRESENT WEATHER               <
>     TMP    - TEMPERATURE IN FAHRENHEIT                   <
>     DP     - DEWPOINT IN FAHRENHEIT                      <
>     RH     - RELATIVE HUMIDITY IN PERCENT                <
>     WIND   - DIRECTION AND SPEED IN MPH                  <
>     PRES   - MEAN SEA LEVEL PRESSURE IN INCHES OF HG     <
>     WCI    - WIND CHILL INDEX                            <
>     VSB    - VISIBILITY IN MILES                         <
>     HX     - HEAT INDEX                                  <
>     TC     - TEMPERATURE IN CELSIUS                      <
>     VRB    - VARIABLE WIND DIRECTION                     <
>                                                          <
>>>>>>>>>>>>>>>>>>>>>>>>>>>> KEY <<<<<<<<<<<<<<<<<<<<<<<<<<<





USA.gov is the U.S. government's official web portal to all federal, state and local government web resources and services.